| time (UTC) | temp F | wind direction | speed knots | gust knots | rain 1hr in | rain 24hr in | rain mn in | humidity % | barometer mb |
| 20260504041558 | 57 | 195 | 2.6 | 8.7 | 0.00 | 0.00 | 0.00 | 58 | 1014.7 |
| 20260504041100 | 57 | 209 | 3.5 | 8.7 | 0.00 | 0.00 | 0.00 | 57 | 1014.6 |
| 20260504040559 | 57 | 207 | 3.5 | 9.6 | 0.00 | 0.00 | 0.00 | 57 | 1014.9 |
| 20260504040107 | 57 | 163 | 3.5 | 9.6 | 0.00 | 0.00 | 0.00 | 57 | 1014.9 |
| 20260504035558 | 56 | 215 | 2.6 | 8.7 | 0.00 | 0.00 | 0.00 | 57 | 1014.9 |
| 20260504035101 | 56 | 192 | 2.6 | 8.7 | 0.00 | 0.00 | 0.00 | 58 | 1014.9 |
| 20260504034634 | 56 | 234 | 2.6 | 5.2 | 0.00 | 0.00 | 0.00 | 59 | 1014.9 |
| 20260504034103 | 55 | 234 | 2.6 | 5.2 | 0.00 | 0.00 | 0.00 | 59 | 1015.1 |
| 20260504033600 | 55 | 221 | 1.7 | 5.2 | 0.00 | 0.00 | 0.00 | 60 | 1015.2 |
| 20260504033058 | 55 | 203 | 1.7 | 4.3 | 0.00 | 0.00 | 0.00 | 60 | 1015.3 |
| 20260504032600 | 56 | 211 | 0.9 | 4.3 | 0.00 | 0.00 | 0.00 | 59 | 1015.2 |
| 20260504032100 | 56 | 219 | 1.7 | 4.3 | 0.00 | 0.00 | 0.00 | 59 | 1015.4 |
| 20260504031600 | 56 | 207 | 1.7 | 4.3 | 0.00 | 0.00 | 0.00 | 59 | 1015.5 |
| 20260504031056 | 56 | 194 | 1.7 | 3.5 | 0.00 | 0.00 | 0.00 | 59 | 1015.5 |
| 20260504030559 | 56 | 199 | 0.0 | 3.5 | 0.00 | 0.00 | 0.00 | 59 | 1015.7 |
| 20260504030121 | 56 | 200 | 0.9 | 2.6 | 0.00 | 0.00 | 0.00 | 58 | 1015.7 |
| 20260504025600 | 56 | 187 | 0.9 | 2.6 | 0.00 | 0.00 | 0.00 | 59 | 1015.7 |
| 20260504025056 | 56 | 186 | 0.0 | 1.7 | 0.00 | 0.00 | 0.00 | 59 | 1015.7 |
| 20260504024602 | 56 | 0 | 0.9 | 2.6 | 0.00 | 0.00 | 0.00 | 59 | 1015.7 |
| 20260504024056 | 56 | 217 | 0.9 | 2.6 | 0.00 | 0.00 | 0.00 | 59 | 1015.7 |
| 20260504023556 | 56 | 0 | 0.9 | 1.7 | 0.00 | 0.00 | 0.00 | 58 | 1015.6 |
| 20260504023102 | 57 | 217 | 0.0 | 1.7 | 0.00 | 0.00 | 0.00 | 58 | 1015.6 |
| 20260504022557 | 57 | 0 | 0.0 | 1.7 | 0.00 | 0.00 | 0.00 | 58 | 1015.8 |
| 20260504022055 | 57 | 0 | 0.9 | 1.7 | 0.00 | 0.00 | 0.00 | 57 | 1015.6 |
| 20260504021558 | 58 | 0 | 0.0 | 0.0 | 0.00 | 0.00 | 0.00 | 55 | 1015.7 |
| 20260504021059 | 58 | 0 | 0.0 | 0.0 | 0.00 | 0.00 | 0.00 | 54 | 1015.6 |
| 20260504020556 | 59 | 0 | 0.0 | 0.0 | 0.00 | 0.00 | 0.00 | 54 | 1015.5 |
| 20260504020108 | 59 | 0 | 0.0 | 0.9 | 0.00 | 0.00 | 0.00 | 53 | 1015.4 |
| 20260504015601 | 59 | 0 | 0.0 | 1.7 | 0.00 | 0.00 | 0.00 | 53 | 1015.3 |
| 20260504015100 | 59 | 0 | 0.0 | 1.7 | 0.00 | 0.00 | 0.00 | 52 | 1015.2 |
| 20260504014608 | 59 | 0 | 0.0 | 2.6 | 0.00 | 0.00 | 0.00 | 52 | 1015.2 |
| 20260504014101 | 59 | 0 | 0.0 | 2.6 | 0.00 | 0.00 | 0.00 | 52 | 1015.0 |
| 20260504013559 | 59 | 0 | 0.0 | 2.6 | 0.00 | 0.00 | 0.00 | 52 | 1014.9 |
| 20260504013058 | 59 | 213 | 0.9 | 2.6 | 0.00 | 0.00 | 0.00 | 52 | 1014.9 |
| 20260504012556 | 60 | 190 | 0.9 | 2.6 | 0.00 | 0.00 | 0.00 | 51 | 1014.8 |
| 20260504012056 | 60 | 0 | 0.0 | 2.6 | 0.00 | 0.00 | 0.00 | 51 | 1014.9 |
| 20260504011556 | 60 | 0 | 0.0 | 2.6 | 0.00 | 0.00 | 0.00 | 51 | 1014.9 |
| 20260504011058 | 60 | 0 | 0.0 | 1.7 | 0.00 | 0.00 | 0.00 | 51 | 1014.7 |
| 20260504010558 | 60 | 0 | 0.0 | 2.6 | 0.00 | 0.00 | 0.00 | 50 | 1014.9 |
| 20260504010058 | 61 | 0 | 0.9 | 2.6 | 0.00 | 0.00 | 0.00 | 50 | 1014.7 |
| 20260504005559 | 61 | 223 | 0.9 | 2.6 | 0.00 | 0.00 | 0.00 | 48 | 1014.8 |
| 20260504005105 | 62 | 0 | 0.0 | 2.6 | 0.00 | 0.00 | 0.00 | 47 | 1014.8 |
| 20260504004558 | 62 | 221 | 0.0 | 2.6 | 0.00 | 0.00 | 0.00 | 46 | 1014.8 |
| 20260504004100 | 62 | 0 | 0.0 | 2.6 | 0.00 | 0.00 | 0.00 | 45 | 1014.8 |
| 20260504003601 | 63 | 0 | 0.0 | 2.6 | 0.00 | 0.00 | 0.00 | 45 | 1014.8 |
| 20260504003100 | 63 | 0 | 0.0 | 2.6 | 0.00 | 0.00 | 0.00 | 44 | 1014.9 |
| 20260504002559 | 63 | 213 | 0.0 | 1.7 | 0.00 | 0.00 | 0.00 | 43 | 1014.9 |
| 20260504002059 | 64 | 207 | 0.0 | 3.5 | 0.00 | 0.00 | 0.00 | 42 | 1014.7 |
| 20260504001607 | 64 | 192 | 0.9 | 3.5 | 0.00 | 0.00 | 0.00 | 42 | 1014.9 |
| 20260504001059 | 64 | 184 | 1.7 | 4.3 | 0.00 | 0.00 | 0.00 | 41 | 1014.9 |
| 20260504000559 | 65 | 188 | 1.7 | 4.3 | 0.00 | 0.00 | 0.00 | 40 | 1015.1 |
| 20260504000100 | 65 | 193 | 0.9 | 3.5 | 0.00 | 0.00 | 0.00 | 40 | 1015.1 |
| 20260503235559 | 65 | 222 | 0.0 | 3.5 | 0.00 | 0.00 | 0.00 | 40 | 1015.1 |
| 20260503235059 | 66 | 195 | 1.7 | 3.5 | 0.00 | 0.00 | 0.00 | 40 | 1015.1 |
| 20260503234558 | 66 | 187 | 0.9 | 3.5 | 0.00 | 0.00 | 0.00 | 39 | 1015.2 |
| 20260503234059 | 66 | 185 | 0.0 | 3.5 | 0.00 | 0.00 | 0.00 | 38 | 1015.3 |
| 20260503233559 | 67 | 169 | 0.0 | 2.6 | 0.00 | 0.00 | 0.00 | 37 | 1015.4 |
| 20260503233102 | 67 | 0 | 0.0 | 3.5 | 0.00 | 0.00 | 0.00 | 36 | 1015.6 |
| 20260503232600 | 68 | 263 | 0.9 | 3.5 | 0.00 | 0.00 | 0.00 | 36 | 1015.6 |
| 20260503232059 | 68 | 0 | 0.9 | 3.5 | 0.00 | 0.00 | 0.00 | 36 | 1015.6 |
| 20260503231558 | 68 | 257 | 0.9 | 5.2 | 0.00 | 0.00 | 0.00 | 35 | 1015.7 |
| 20260503231059 | 68 | 254 | 1.7 | 5.2 | 0.00 | 0.00 | 0.00 | 35 | 1015.8 |
| 20260503230600 | 67 | 258 | 0.9 | 5.2 | 0.00 | 0.00 | 0.00 | 37 | 1015.8 |
| 20260503225559 | 67 | 184 | 0.9 | 5.2 | 0.00 | 0.00 | 0.00 | 36 | 1015.8 |
| 20260503225102 | 67 | 0 | 1.7 | 5.2 | 0.00 | 0.00 | 0.00 | 36 | 1015.9 |
| 20260503224558 | 67 | 256 | 0.9 | 5.2 | 0.00 | 0.00 | 0.00 | 35 | 1015.8 |
| 20260503224100 | 67 | 220 | 0.9 | 7.0 | 0.00 | 0.00 | 0.00 | 36 | 1015.9 |
| 20260503223559 | 68 | 0 | 1.7 | 7.0 | 0.00 | 0.00 | 0.00 | 36 | 1015.9 |
| 20260503223057 | 68 | 232 | 2.6 | 6.1 | 0.00 | 0.00 | 0.00 | 38 | 1015.9 |
| 20260503222558 | 68 | 0 | 1.7 | 6.1 | 0.00 | 0.00 | 0.00 | 39 | 1015.9 |
| 20260503222100 | 68 | 215 | 0.9 | 5.2 | 0.00 | 0.00 | 0.00 | 38 | 1016.1 |
| 20260503221602 | 68 | 249 | 0.9 | 9.6 | 0.00 | 0.00 | 0.00 | 38 | 1016.2 |
| 20260503221101 | 68 | 157 | 0.9 | 9.6 | 0.00 | 0.00 | 0.00 | 36 | 1016.2 |
| 20260503220600 | 68 | 0 | 1.7 | 5.2 | 0.00 | 0.00 | 0.00 | 38 | 1016.3 |
| 20260503220059 | 67 | 273 | 0.9 | 7.8 | 0.00 | 0.00 | 0.00 | 37 | 1016.2 |
| 20260503215600 | 67 | 279 | 0.9 | 8.7 | 0.00 | 0.00 | 0.00 | 37 | 1016.4 |
| 20260503215059 | 68 | 171 | 2.6 | 8.7 | 0.00 | 0.00 | 0.00 | 37 | 1016.5 |
| 20260503214604 | 68 | 182 | 0.9 | 6.1 | 0.00 | 0.00 | 0.00 | 36 | 1016.5 |
| 20260503214059 | 68 | 258 | 1.7 | 6.1 | 0.00 | 0.00 | 0.00 | 37 | 1016.6 |
| 20260503213559 | 68 | 0 | 0.9 | 5.2 | 0.00 | 0.00 | 0.00 | 36 | 1016.7 |
| 20260503213103 | 68 | 266 | 1.7 | 5.2 | 0.00 | 0.00 | 0.00 | 37 | 1016.7 |
| 20260503212601 | 68 | 264 | 1.7 | 5.2 | 0.00 | 0.00 | 0.00 | 35 | 1016.8 |
| 20260503212100 | 68 | 279 | 0.9 | 5.2 | 0.00 | 0.00 | 0.00 | 35 | 1016.8 |
| 20260503211602 | 68 | 277 | 0.9 | 5.2 | 0.00 | 0.00 | 0.00 | 36 | 1017.0 |
| 20260503211102 | 67 | 269 | 0.9 | 3.5 | 0.00 | 0.00 | 0.00 | 37 | 1017.1 |
| 20260503210600 | 67 | 247 | 0.9 | 6.1 | 0.00 | 0.00 | 0.00 | 36 | 1017.1 |
| 20260503210057 | 67 | 0 | 0.9 | 6.1 | 0.00 | 0.00 | 0.00 | 36 | 1017.2 |
| 20260503205600 | 67 | 315 | 0.9 | 5.2 | 0.00 | 0.00 | 0.00 | 35 | 1017.2 |
| 20260503205100 | 67 | 273 | 0.0 | 5.2 | 0.00 | 0.00 | 0.00 | 37 | 1017.3 |
| 20260503204602 | 67 | 200 | 1.7 | 5.2 | 0.00 | 0.00 | 0.00 | 34 | 1017.4 |
| 20260503204059 | 67 | 126 | 0.0 | 5.2 | 0.00 | 0.00 | 0.00 | 35 | 1017.6 |
| 20260503203559 | 67 | 254 | 0.9 | 6.1 | 0.00 | 0.00 | 0.00 | 35 | 1017.5 |
| 20260503203057 | 67 | 279 | 1.7 | 6.1 | 0.00 | 0.00 | 0.00 | 35 | 1017.6 |
| 20260503202559 | 67 | 259 | 0.9 | 3.5 | 0.00 | 0.00 | 0.00 | 37 | 1017.7 |
| 20260503202101 | 67 | 270 | 1.7 | 5.2 | 0.00 | 0.00 | 0.00 | 34 | 1017.9 |
| 20260503201601 | 66 | 265 | 0.0 | 7.8 | 0.00 | 0.00 | 0.00 | 37 | 1017.9 |
| 20260503201059 | 66 | 240 | 1.7 | 7.8 | 0.00 | 0.00 | 0.00 | 35 | 1018.0 |
| 20260503200559 | 66 | 125 | 1.7 | 5.2 | 0.00 | 0.00 | 0.00 | 37 | 1018.2 |
| 20260503200100 | 67 | 148 | 0.0 | 4.3 | 0.00 | 0.00 | 0.00 | 34 | 1018.2 |
| 20260503195558 | 67 | 261 | 1.7 | 6.1 | 0.00 | 0.00 | 0.00 | 35 | 1018.5 |
| 20260503195059 | 67 | 248 | 1.7 | 6.1 | 0.00 | 0.00 | 0.00 | 38 | 1018.5 |
| 20260503194601 | 67 | 267 | 1.7 | 5.2 | 0.00 | 0.00 | 0.00 | 35 | 1018.5 |
| 20260503194101 | 67 | 0 | 0.9 | 5.2 | 0.00 | 0.00 | 0.00 | 38 | 1018.7 |
| 20260503193559 | 66 | 0 | 1.7 | 5.2 | 0.00 | 0.00 | 0.00 | 36 | 1018.7 |
| 20260503193111 | 66 | 278 | 0.9 | 3.5 | 0.00 | 0.00 | 0.00 | 39 | 1018.9 |
| 20260503192559 | 66 | 263 | 0.9 | 5.2 | 0.00 | 0.00 | 0.00 | 38 | 1018.8 |
| 20260503192059 | 66 | 285 | 1.7 | 5.2 | 0.00 | 0.00 | 0.00 | 40 | 1019.0 |
| 20260503191600 | 65 | 0 | 1.7 | 5.2 | 0.00 | 0.00 | 0.00 | 38 | 1019.1 |
| 20260503191101 | 65 | 0 | 0.9 | 5.2 | 0.00 | 0.00 | 0.00 | 36 | 1019.1 |
| 20260503190559 | 65 | 271 | 1.7 | 5.2 | 0.00 | 0.00 | 0.00 | 35 | 1019.3 |
| 20260503190109 | 64 | 263 | 0.9 | 6.1 | 0.00 | 0.00 | 0.00 | 35 | 1019.3 |
| 20260503185559 | 64 | 254 | 1.7 | 6.1 | 0.00 | 0.00 | 0.00 | 36 | 1019.4 |
| 20260503185100 | 64 | 126 | 0.9 | 5.2 | 0.00 | 0.00 | 0.00 | 38 | 1019.4 |
| 20260503184602 | 64 | 274 | 1.7 | 6.1 | 0.00 | 0.00 | 0.00 | 37 | 1019.4 |
| 20260503184058 | 64 | 286 | 0.9 | 6.1 | 0.00 | 0.00 | 0.00 | 37 | 1019.5 |
| 20260503183559 | 63 | 211 | 0.9 | 11.3 | 0.00 | 0.00 | 0.00 | 39 | 1019.7 |
| 20260503183114 | 63 | 142 | 3.5 | 11.3 | 0.00 | 0.00 | 0.00 | 39 | 1019.7 |
| 20260503182557 | 63 | 0 | 2.6 | 6.1 | 0.00 | 0.00 | 0.00 | 41 | 1019.7 |
| 20260503182059 | 63 | 183 | 1.7 | 6.1 | 0.00 | 0.00 | 0.00 | 40 | 1019.9 |
| 20260503181559 | 63 | 301 | 0.9 | 2.6 | 0.00 | 0.00 | 0.00 | 40 | 1019.9 |
| 20260503181101 | 63 | 0 | 0.9 | 3.5 | 0.00 | 0.00 | 0.00 | 40 | 1020.0 |
| 20260503180600 | 62 | 347 | 0.0 | 5.2 | 0.00 | 0.00 | 0.00 | 43 | 1020.1 |
| 20260503180100 | 62 | 0 | 0.9 | 5.2 | 0.00 | 0.00 | 0.00 | 42 | 1020.2 |
| 20260503175559 | 62 | 189 | 0.9 | 6.1 | 0.00 | 0.00 | 0.00 | 40 | 1020.2 |
| 20260503175100 | 61 | 128 | 0.9 | 6.1 | 0.00 | 0.00 | 0.00 | 39 | 1020.3 |
| 20260503174559 | 62 | 106 | 0.0 | 4.3 | 0.00 | 0.00 | 0.00 | 40 | 1020.4 |
| 20260503174102 | 62 | 179 | 1.7 | 4.3 | 0.00 | 0.00 | 0.00 | 40 | 1020.4 |
| 20260503173604 | 62 | 220 | 0.9 | 6.1 | 0.00 | 0.00 | 0.00 | 44 | 1020.4 |
| 20260503173114 | 61 | 276 | 0.9 | 6.1 | 0.00 | 0.00 | 0.00 | 39 | 1020.5 |
| 20260503172559 | 61 | 181 | 0.9 | 7.8 | 0.00 | 0.00 | 0.00 | 44 | 1020.5 |
| 20260503172101 | 61 | 177 | 3.5 | 7.8 | 0.00 | 0.00 | 0.00 | 43 | 1020.6 |
| 20260503171558 | 61 | 202 | 1.7 | 7.8 | 0.00 | 0.00 | 0.00 | 44 | 1020.6 |
| 20260503171100 | 61 | 211 | 1.7 | 6.1 | 0.00 | 0.00 | 0.00 | 47 | 1020.7 |
| 20260503170601 | 61 | 0 | 0.9 | 8.7 | 0.00 | 0.00 | 0.00 | 45 | 1020.8 |
| 20260503150559 | 56 | 38 | 0.9 | 3.5 | 0.00 | 0.00 | 0.00 | 47 | 1021.7 |
| 20260503150111 | 56 | 89 | 0.0 | 3.5 | 0.00 | 0.00 | 0.00 | 43 | 1021.7 |
| 20260503140119 | 53 | 190 | 0.0 | 3.5 | 0.00 | 0.00 | 0.00 | 73 | 1021.7 |
| 20260503131059 | 49 | 0 | 0.0 | 2.6 | 0.00 | 0.00 | 0.00 | 85 | 1021.6 |
| 20260503130559 | 48 | 64 | 1.7 | 2.6 | 0.00 | 0.00 | 0.00 | 84 | 1021.6 |
| 20260503130109 | 48 | 151 | 0.9 | 3.5 | 0.00 | 0.00 | 0.00 | 87 | 1021.7 |
| 20260503110601 | 38 | 0 | 0.0 | 0.0 | 0.00 | 0.00 | 0.00 | 94 | 1020.5 |
| 20260503110117 | 38 | 0 | 0.0 | 1.7 | 0.00 | 0.00 | 0.00 | 94 | 1020.3 |
| 20260503100109 | 39 | 0 | 0.0 | 0.0 | 0.00 | 0.00 | 0.00 | 94 | 1020.1 |
| 20260503081615 | 41 | 0 | 0.0 | 0.0 | 0.00 | 0.00 | 0.00 | 94 | 1019.8 |
| 20260503081059 | 41 | 0 | 0.0 | 0.0 | 0.00 | 0.00 | 0.00 | 94 | 1019.7 |
| 20260503080600 | 41 | 0 | 0.0 | 0.0 | 0.00 | 0.00 | 0.00 | 94 | 1019.8 |
| 20260503080104 | 41 | 0 | 0.0 | 0.0 | 0.00 | 0.00 | 0.00 | 94 | 1019.9 |
| 20260503072600 | 41 | 181 | 0.0 | 0.9 | 0.00 | 0.00 | 0.00 | 93 | 1019.6 |
| 20260503072103 | 41 | 0 | 0.0 | 0.9 | 0.00 | 0.00 | 0.00 | 93 | 1019.8 |
| 20260503071610 | 41 | 0 | 0.0 | 0.9 | 0.00 | 0.00 | 0.00 | 93 | 1019.7 |
| 20260503071058 | 41 | 0 | 0.0 | 1.7 | 0.00 | 0.00 | 0.00 | 93 | 1019.7 |
| 20260503070559 | 41 | 0 | 0.0 | 1.7 | 0.00 | 0.00 | 0.00 | 93 | 1019.6 |
| 20260503060111 | 41 | 0 | 0.0 | 0.0 | 0.00 | 0.00 | 0.00 | 92 | 1019.7 |
| 20260503055059 | 42 | 0 | 0.0 | 0.0 | 0.00 | 0.00 | 0.00 | 92 | 1019.6 |
| 20260503054608 | 42 | 0 | 0.0 | 0.0 | 0.00 | 0.00 | 0.00 | 92 | 1019.6 |
| 20260503054059 | 42 | 0 | 0.0 | 0.0 | 0.00 | 0.00 | 0.00 | 92 | 1019.5 |
| 20260503053600 | 42 | 0 | 0.0 | 0.0 | 0.00 | 0.00 | 0.00 | 92 | 1019.5 |
| 20260503053102 | 42 | 0 | 0.0 | 0.0 | 0.00 | 0.00 | 0.00 | 92 | 1019.5 |
| 20260503052600 | 42 | 0 | 0.0 | 0.0 | 0.00 | 0.00 | 0.00 | 91 | 1019.5 |
| 20260503052101 | 42 | 0 | 0.0 | 0.0 | 0.00 | 0.00 | 0.00 | 91 | 1019.5 |
| 20260503051601 | 42 | 0 | 0.0 | 0.0 | 0.00 | 0.00 | 0.00 | 91 | 1019.5 |
| 20260503051100 | 42 | 0 | 0.0 | 0.0 | 0.00 | 0.00 | 0.00 | 91 | 1019.4 |
| 20260503050601 | 42 | 0 | 0.0 | 0.0 | 0.00 | 0.00 | 0.00 | 91 | 1019.4 |
| 20260503050105 | 42 | 0 | 0.0 | 0.0 | 0.00 | 0.00 | 0.00 | 91 | 1019.3 |
| 20260503045559 | 42 | 0 | 0.0 | 0.0 | 0.00 | 0.00 | 0.00 | 91 | 1019.4 |
| 20260503045100 | 42 | 0 | 0.0 | 0.0 | 0.00 | 0.00 | 0.00 | 91 | 1019.3 |
| 20260503044610 | 43 | 0 | 0.0 | 0.0 | 0.00 | 0.00 | 0.00 | 91 | 1019.4 |
| 20260503044103 | 43 | 0 | 0.0 | 0.0 | 0.00 | 0.00 | 0.00 | 91 | 1019.3 |
| 20260503043557 | 43 | 0 | 0.0 | 0.0 | 0.00 | 0.00 | 0.00 | 91 | 1019.3 |
| 20260503043110 | 43 | 0 | 0.0 | 0.0 | 0.00 | 0.00 | 0.00 | 91 | 1019.3 |
| 20260503042558 | 43 | 0 | 0.0 | 0.0 | 0.00 | 0.00 | 0.00 | 90 | 1019.3 |
| 20260503042100 | 43 | 0 | 0.0 | 0.0 | 0.00 | 0.00 | 0.00 | 90 | 1019.3 |